"Time","Temp","Dewpoint","Humidity","Pressure","Direction","Speed","Gust","Precip","PrecipRate"
"00:04:59","36.7","25.8","64.3","30.04","331","2.7","6","0.00","0.00"
"00:09:57","36.5","25.8","65","30.04","312","2.3","6","0.00","0.00"
"00:14:56","36.3","25.7","65","30.04","337","1.9","7.2","0.00","0.00"
"00:19:58","36.2","25.7","65.3","30.04","329","1.6","4.8","0.00","0.00"
"00:24:59","35.9","25.5","65.8","30.04","319","1.3","4.8","0.00","0.00"
"00:29:56","35.6","25.4","66","30.05","327","1.4","4.8","0.00","0.00"
"00:34:56","35.4","25.4","66.8","30.05","327","0.1","2.4","0.00","0.00"
"00:39:57","35.1","25.2","67.1","30.05","327","0.4","2.4","0.00","0.00"
"00:44:59","34.8","25.3","68","30.05","327","0.1","2.3","0.00","0.00"
"00:49:59","34.5","25","68","30.04","327","0","0","0.00","0.00"
"00:54:57","34.2","24.9","68.3","30.04","327","0","0","0.00","0.00"
"00:59:58","33.9","24.9","69.5","30.05","327","0","0","0.00","0.00"
"01:04:56","33.4","24.7","70","30.05","327","0","0","0.00","0.00"
"01:09:59","33.1","24.6","70.6","30.05","327","0","2.4","0.00","0.00"
"01:14:57","33","24.6","71","30.05","327","1.6","2.4","0.00","0.00"
"01:19:58","32.8","24.4","71","30.04","327","0.1","2.3","0.00","0.00"
"01:24:56","32.7","24.3","71","30.04","327","0","0","0.00","0.00"
"01:29:58","32.5","24.5","72","30.05","327","0","0","0.00","0.00"
"01:34:57","32.3","24.4","72.6","30.05","327","0.6","2.4","0.00","0.00"
"01:39:59","32.2","24.5","73","30.05","327","0","1.2","0.00","0.00"
"01:44:57","32.1","24.4","73","30.05","327","0","0","0.00","0.00"
"01:49:57","32","24.3","73","30.05","327","0","0","0.00","0.00"
"01:54:59","31.7","24.3","73.7","30.05","327","0","0","0.00","0.00"
"01:59:57","31.5","24.2","74","30.05","327","0","1.2","0.00","0.00"
"03:04:56","31.4","24.3","74.5","30.04","327","0.1","1.2","0.00","0.00"
"03:09:56","31.4","24.4","75","30.04","327","0","0","0.00","0.00"
"03:14:58","31.4","24.4","75","30.04","327","0","0","0.00","0.00"
"03:19:59","31.2","24.2","75.3","30.04","327","0","0","0.00","0.00"
"03:24:57","30.9","24.2","76","30.04","327","0","0","0.00","0.00"
"03:29:55","30.8","24.1","76","30.04","327","0","0","0.00","0.00"
"03:34:57","30.8","24.1","76","30.03","327","0","0","0.00","0.00"
"03:39:56","30.9","24.2","76","30.03","327","0","0","0.00","0.00"
"03:44:59","30.9","24.2","76","30.03","327","0","0","0.00","0.00"
"03:49:58","30.8","24.3","76.8","30.03","327","0","0","0.00","0.00"
"03:54:59","30.7","24.3","77","30.03","327","0","0","0.00","0.00"
"03:59:57","30.6","24.2","77","30.04","327","0","0","0.00","0.00"
"04:04:58","30.3","24.1","77.2","30.04","327","0","0","0.00","0.00"
"04:09:58","30","24","78","30.04","327","0","0","0.00","0.00"
"04:14:59","29.9","23.9","78","30.04","327","0","0","0.00","0.00"
"04:19:58","29.8","24.1","78.8","30.04","327","0","0","0.00","0.00"
"04:24:59","29.8","24","78.6","30.04","327","0","0","0.00","0.00"
"04:29:56","29.8","24","78.6","30.04","327","0","0","0.00","0.00"
"04:34:59","29.8","24.1","79","30.03","327","0","0","0.00","0.00"
"04:39:57","29.8","24.1","79","30.03","327","0","0","0.00","0.00"
"04:44:58","29.8","24.2","79.3","30.03","327","0","0","0.00","0.00"
"04:49:57","29.7","24","79","30.03","327","0","0","0.00","0.00"
"04:54:58","29.6","23.9","79","30.03","327","0","0","0.00","0.00"
"04:59:59","29.5","23.8","79","30.03","327","0","0","0.00","0.00"
"05:04:57","29.4","23.9","79.7","30.02","327","0","0","0.00","0.00"
"05:09:56","29.2","23.8","80","30.02","327","0","0","0.00","0.00"
"05:14:56","29","23.7","80.5","30.03","327","0","0","0.00","0.00"
"05:19:59","28.8","23.7","81","30.03","327","0","0","0.00","0.00"
"05:24:59","28.7","23.6","81","30.03","327","0","0","0.00","0.00"
"05:29:57","28.5","23.5","81.3","30.03","327","0.4","3.6","0.00","0.00"
"05:34:59","28.5","23.7","82","30.03","327","0.5","3.6","0.00","0.00"
"05:39:59","28.6","23.8","82","30.03","327","0","0","0.00","0.00"
"05:44:58","28.5","23.7","82","30.03","327","0.2","1.2","0.00","0.00"
"05:49:59","28.5","23.7","82","30.03","327","0.1","1.2","0.00","0.00"
"05:54:59","28.5","23.7","82","30.03","327","0.1","2.4","0.00","0.00"
"05:59:57","28.5","23.8","82.1","30.04","325","0.3","3.6","0.00","0.00"
"06:04:58","28.7","24.1","82.6","30.04","325","0.1","1.2","0.00","0.00"
"06:09:59","28.7","24.2","83","30.04","325","0","0","0.00","0.00"
"06:14:58","28.9","24.2","82.4","30.04","325","0.2","2.4","0.00","0.00"
"06:19:58","29.3","24.4","81.5","30.04","325","0.1","2.3","0.00","0.00"
"06:24:56","29.7","24.8","81.5","30.04","325","0.6","2.4","0.00","0.00"
"06:29:57","30.2","24.8","80","30.04","325","0","1.2","0.00","0.00"
"06:34:58","30.5","25.1","79.7","30.04","325","0","0","0.00","0.00"
"06:39:59","30.7","25.1","79.3","30.04","325","0","0","0.00","0.00"
"06:44:57","30.7","25.1","79.4","30.04","325","0","0","0.00","0.00"
"06:49:57","30.7","24.9","78.8","30.04","325","0","0","0.00","0.00"
"06:54:58","30.6","24.8","78.5","30.04","325","0","0","0.00","0.00"
"06:59:59","30.6","24.9","79","30.04","325","0","0","0.00","0.00"
"07:04:56","30.6","24.9","79","30.04","325","0","0","0.00","0.00"
"07:09:59","30.5","24.8","79","30.04","325","0","0","0.00","0.00"
"07:14:57","30.5","24.8","79","30.04","325","0","1.2","0.00","0.00"
"07:19:57","30.7","25","78.9","30.04","29","0.8","3.6","0.00","0.00"
"07:24:58","31.1","25","78","30.04","29","0.9","2.4","0.00","0.00"
"07:29:59","31.3","25.2","78","30.04","28","0.3","2.4","0.00","0.00"
"07:34:56","31.4","25.3","78","30.03","26","0.3","1.2","0.00","0.00"
"07:39:58","31.5","25.4","78","30.03","26","0.1","1.2","0.00","0.00"
"07:44:59","31.6","25.5","78","30.03","25","0.3","2.4","0.00","0.00"
"07:49:57","31.6","25.5","78","30.03","26","0.2","1.2","0.00","0.00"
"07:54:58","31.7","25.6","78","30.03","24","0.1","1.2","0.00","0.00"
"07:59:56","31.7","25.6","78","30.05","24","0.4","2.4","0.00","0.00"
"08:04:57","31.7","25.7","78.2","30.05","24","0.1","1.2","0.00","0.00"
"08:09:57","31.8","25.7","78","30.05","24","0.1","1.2","0.00","0.00"
"08:14:58","31.9","25.6","77.3","30.06","24","0.2","2.4","0.00","0.00"
"08:19:57","32","25.6","77","30.06","24","0.3","2.3","0.00","0.00"
"08:24:59","32","26","78","30.06","24","0","1.2","0.00","0.00"
"08:29:59","32.1","26.3","79","30.06","24","0","0","0.00","0.00"
"08:34:57","32.2","26.2","78.3","30.06","24","0","0","0.00","0.00"
"08:39:58","32.4","26.3","78","30.06","24","0","0","0.00","0.00"
"08:44:59","32.5","26.4","78","30.06","24","0","0","0.00","0.00"
"08:49:58","32.6","26.4","77.7","30.06","24","0","0","0.00","0.00"
"08:54:58","32.8","26.4","77","30.06","24","0","0","0.00","0.00"
"08:59:59","33","26.6","77.1","30.06","24","0","0","0.00","0.00"
"09:04:56","33.1","26.9","77.6","30.05","25","0.1","1.2","0.00","0.00"
"09:09:59","33.3","26.9","77","30.05","25","0.3","2.4","0.00","0.00"
"09:14:56","33.5","27","76.8","30.05","25","0.6","2.4","0.00","0.00"
"09:19:59","33.7","27.1","76.5","30.04","26","0.8","2.4","0.00","0.00"
"09:24:56","34","27.3","76.2","30.04","38","1.2","3.6","0.00","0.00"
"09:29:56","34.3","27.4","75.4","30.04","84","2.1","6","0.00","0.00"
"09:34:58","34.6","27.5","74.9","30.04","83","0.8","4.8","0.00","0.00"
"09:39:58","34.9","27.5","74","30.04","102","3.3","6","0.00","0.00"
"09:44:59","35","27.2","73.1","30.04","119","4.1","7.2","0.00","0.00"
"09:49:57","35","27.4","73.7","30.04","112","3.3","6","0.00","0.00"
"09:54:57","35.2","27.6","73.5","30.04","96","2.9","4.8","0.00","0.00"
"09:59:57","35.5","27.8","73.3","30.04","120","2.4","6","0.00","0.00"
"10:04:57","35.7","27.7","72.4","30.04","122","2.2","7.2","0.00","0.00"
"10:09:57","35.7","27.7","72.2","30.04","120","2.2","3.6","0.00","0.00"
"10:14:57","35.8","27.8","72.3","30.04","104","2.7","4.8","0.00","0.00"
"10:19:56","35.9","27.8","72.2","30.04","97","1.6","4.8","0.00","0.00"
"10:24:56","36","27.8","72.1","30.04","96","1.6","4.8","0.00","0.00"
"10:29:56","36.1","28.1","72.5","30.06","133","1.5","4.8","0.00","0.00"
"10:34:59","36.2","28","72","30.06","196","2.6","4.8","0.00","0.00"
"10:39:56","36.3","28.1","72.1","30.06","185","1.3","4.8","0.00","0.00"
"10:44:59","36.4","28","71.3","30.06","134","3","4.8","0.00","0.00"
"10:49:56","36.4","27.8","71","30.06","139","2.9","4.8","0.00","0.00"
"10:54:59","36.4","28.1","71.5","30.06","136","2.7","4.8","0.00","0.00"
"10:59:59","36.6","28.2","71.3","30.06","180","2.8","4.8","0.00","0.00"
"11:04:56","36.8","28.4","71.2","30.06","183","1.7","4.6","0.00","0.00"
"11:09:59","37","28.5","71.1","30.06","183","1.7","3.6","0.00","0.00"
"11:14:56","37.1","28.4","70.4","30.06","178","2","4.8","0.00","0.00"
"11:19:57","37.1","28.3","70.2","30.06","165","1.8","4.8","0.00","0.00"
"11:24:58","37.1","28.4","70.5","30.06","108","2.4","4.8","0.00","0.00"
"11:29:59","37.2","28.7","71.2","30.06","108","1.3","4.6","0.00","0.00"
"11:34:59","37.3","28.4","70.2","30.06","110","0.9","2.4","0.00","0.00"
"11:39:56","37.3","28.5","70.4","30.06","112","2.4","6","0.00","0.00"
"11:44:56","37.2","28.3","70.1","30.06","135","1.3","4.8","0.00","0.00"
"11:49:58","37.3","28.6","70.6","30.05","151","1.4","4.8","0.00","0.00"
"11:54:58","37.3","28.5","70.2","30.05","152","1.1","4.8","0.00","0.00"
"11:59:59","37.3","28.2","69.3","30.05","138","1.6","4.8","0.00","0.00"
"12:04:59","37.3","28.6","70.5","30.04","109","2.8","4.8","0.00","0.00"
"12:09:59","37.5","28.7","70.3","30.04","110","2.3","6","0.00","0.00"
"12:14:59","37.6","29","70.8","30.04","99","2.5","4.8","0.00","0.00"
"12:19:59","37.8","28.8","70","30.04","96","1.6","4.8","0.00","0.00"
"12:24:56","38","29.1","70.1","30.04","117","3.2","7.2","0.00","0.00"
"12:29:56","38","28.7","69","30.04","113","3.1","4.8","0.00","0.00"
"12:34:59","38","29","69.7","30.03","112","2.4","4.8","0.00","0.00"
"12:39:56","38.2","29.2","69.8","30.03","221","2.9","6","0.00","0.00"
"12:44:56","38.4","29.1","68.8","30.03","197","2.7","4.8","0.00","0.00"
"12:49:58","38.5","29.2","69","30.03","169","1.7","4.6","0.00","0.00"
"12:54:58","38.3","29","68.9","30.03","157","2.1","3.6","0.00","0.00"
"12:59:58","38.3","29.1","69.4","30.03","196","3.5","6","0.00","0.00"
"13:04:58","38.2","28.8","68.8","30.03","197","2.5","6","0.00","0.00"
"13:09:58","37.9","28.5","68.6","30.03","197","2.7","4.8","0.00","0.00"
"13:14:59","37.9","29","70","30.03","196","1.7","4.8","0.00","0.00"
"13:19:57","37.9","28.9","69.7","30.03","199","2.8","4.8","0.00","0.00"
"13:24:56","38","28.9","69.5","30.03","203","2.7","6","0.00","0.00"
"13:29:57","38.1","29","69.5","30.03","201","2.8","6","0.00","0.00"
"13:34:59","38.1","28.9","69.2","30.03","193","2.9","4.8","0.00","0.00"
"13:39:55","38.2","29","69.2","30.03","190","2.2","3.6","0.00","0.00"
"13:44:56","38.3","29.5","70.4","30.03","133","2.1","7.2","0.00","0.00"
"13:49:57","38","29.7","71.7","30.03","137","3.9","7.2","0.00","0.00"
"13:54:57","37.4","30.9","77.4","30.03","160","3.1","7.2","0.00","0.00"
"13:59:57","36.6","31.1","80.1","30.03","161","1.6","3.6","0.00","0.00"
"14:04:58","36","31","82.2","30.03","162","1.9","3.6","0.00","0.00"
"14:09:57","35.4","31.1","84.3","30.03","202","2.4","4.8","0.00","0.00"
"14:14:57","34.8","31.1","86.1","30.03","202","2.1","3.6","0.00","0.00"
"14:19:59","34.5","31.1","87.2","30.03","202","0.7","2.4","0.00","0.00"
"14:24:59","34.3","31.2","88.2","30.03","202","1.4","3.6","0.00","0.00"
"14:29:59","34.2","31.4","89.1","30.03","202","0.8","2.4","0.01","0.01"
"14:34:59","34.2","31.6","90","30.03","202","0","0","0.01","0.01"
"14:39:56","34.3","31.7","90.4","30.03","202","0.2","1.2","0.02","0.01"
"14:44:56","34.4","32","91","30.03","198","2.1","4.8","0.02","0.02"
"14:49:58","34.6","32.3","91.6","30.01","194","1.8","3.6","0.02","0.02"
"14:54:57","34.8","32.7","92","30.01","188","2.7","4.8","0.02","0.02"
"14:59:57","35.1","33","92","30.01","186","1.6","4.6","0.02","0.02"
"15:04:57","35.3","33","91.4","30.01","200","3.3","6","0.02","0.02"
"15:09:56","35.5","33.1","91","30.01","203","2.5","6","0.02","0.02"
"15:14:57","35.6","33.2","91","30.01","192","2.7","7.2","0.02","0.02"
"15:19:59","35.7","33.1","90.1","30.01","200","1.7","5.8","0.02","0.02"
"15:24:59","35.7","33.1","90","30.01","199","2.2","4.8","0.02","0.02"
"15:29:59","35.7","33.1","90","30.02","196","2","4.8","0.02","0.02"
"15:34:57","35.8","33.2","90","30.02","161","1","3.6","0.02","0.01"
"15:39:58","35.9","33.3","90.2","30.02","157","2.2","3.6","0.02","0.01"
"15:44:58","36","33.4","90.2","30.02","159","2.2","4.8","0.02","0.00"
"15:49:59","36.1","33.6","90.5","30.02","156","1.6","3.6","0.02","0.00"
"15:54:59","36.1","33.5","90.2","30.02","187","2","4.8","0.02","0.00"
"15:59:59","36","33.4","90","30.02","171","1.8","4.8","0.02","0.00"
"16:04:59","35.9","33.3","90","30.01","130","1.7","4.6","0.02","0.00"
"16:09:58","36.1","33.7","91","30.01","179","1.3","3.6","0.02","0.00"
"16:14:58","36.2","33.7","90.9","30.02","128","2.1","6","0.02","0.00"
"16:19:57","36","33.4","90","30.02","127","3","6","0.02","0.00"
"16:24:57","36","33.5","90.6","30.02","131","2.3","4.8","0.02","0.00"
"16:29:56","36.2","33.8","91","30.02","149","2.6","4.8","0.02","0.00"
"16:34:58","36.2","33.8","91","30.01","140","2.6","6","0.02","0.00"
"16:39:58","36.3","33.8","90.5","30.01","169","2.4","5.8","0.02","0.00"
"16:44:58","36.5","34.1","91","30.01","135","2","3.6","0.02","0.00"
"16:49:56","36.6","34.2","91","30.01","160","2.4","6","0.03","0.01"
"16:54:56","36.7","34.1","90.4","30.01","173","3.1","6","0.03","0.01"
"16:59:59","36.5","33.8","90","30.01","159","2.4","7.2","0.03","0.01"
"17:04:59","36.3","33.6","90","30.00","125","3.1","6.9","0.03","0.01"
"17:09:58","36.2","33.6","90.3","30.00","127","2.9","6","0.03","0.01"
"17:14:59","36.1","33.6","90.5","30.00","122","3","7.2","0.03","0.01"
"17:19:56","36.1","33.7","91","30.00","154","2.4","6.9","0.03","0.01"
"17:24:59","36.2","33.8","91","30.00","117","2.6","6","0.03","0.01"
"17:29:58","36","33.6","91","30.00","117","3.8","7.2","0.03","0.01"
"17:34:56","35.9","33.5","91","29.99","142","2.9","6","0.03","0.01"
"17:39:57","35.9","33.5","91","29.99","124","3.2","7.2","0.03","0.01"
"17:44:56","35.9","33.5","91","29.99","113","2.2","4.8","0.03","0.01"
"17:49:59","35.9","33.5","91","29.99","123","1.7","4.8","0.03","0.01"
"17:54:59","36","33.9","92","29.99","129","1.8","6","0.03","0.00"
"17:59:58","35.9","33.7","91.7","30.00","122","2.7","7.2","0.03","0.00"
"18:04:58","35.8","33.4","91.2","30.00","116","3.5","7.2","0.03","0.00"
"18:09:57","35.6","33.4","91.4","30.00","130","3.9","7.2","0.03","0.00"
"18:14:57","35.5","33.2","91.4","30.00","120","3.7","7.2","0.04","0.01"
"18:19:56","35.4","33.2","91.5","29.99","122","3.4","7.2","0.04","0.01"
"18:24:57","35.4","33.3","92","29.99","124","2.5","4.8","0.04","0.01"
"18:29:58","35.4","33.3","92","30.00","127","1.7","4.8","0.04","0.01"
"18:34:59","35.4","33.3","92","30.00","126","0.7","2.4","0.04","0.01"
"18:39:59","35.4","33.5","92.6","30.00","127","0.5","3.6","0.04","0.01"
"18:44:59","35.4","33.6","92.8","30.00","129","1.5","4.8","0.04","0.01"
"18:49:59","35.4","33.3","92","30.00","137","1.3","4.8","0.04","0.01"
"18:54:59","35.3","33.5","92.7","30.00","136","1","4.8","0.04","0.01"
"18:59:56","35.3","33.5","93","30.00","136","0.7","2.4","0.04","0.01"
"19:04:56","35.3","33.5","93","30.00","132","2","4.8","0.04","0.01"
"19:09:59","35.2","33.4","93","30.00","120","3.5","6","0.04","0.01"
"19:14:57","35.2","33.4","93","30.00","125","1.4","3.6","0.04","0.01"
"19:19:57","35.2","33.4","93","30.00","97","1.5","4.8","0.04","0.00"
"19:24:57","35.2","33.4","93","30.00","105","2.4","7.2","0.04","0.00"
"19:29:58","35.2","33.4","93","30.00","122","2.1","6.9","0.04","0.00"
"19:34:58","35.2","33.4","93","30.00","127","1.4","4.8","0.04","0.00"
"19:39:59","35.2","33.4","93","30.00","120","2.1","4.6","0.05","0.01"
"19:44:59","35.2","33.4","93","30.00","110","2.7","3.6","0.05","0.01"
"19:49:58","35.2","33.4","93","30.00","121","2.5","6","0.05","0.01"
"19:54:58","35.2","33.5","93.6","30.00","110","1.6","4.8","0.05","0.01"
"19:59:58","35.3","33.7","94","30.00","131","2.5","4.8","0.05","0.01"
"20:04:58","35.3","33.7","94","29.98","117","3.4","10.8","0.05","0.01"
"20:09:58","35.3","33.7","94","29.98","116","2.2","5.8","0.05","0.01"
"20:14:59","35.3","33.7","94","29.98","131","3.5","7.2","0.05","0.01"
"20:19:57","35.2","33.6","94","29.98","125","2.6","6","0.05","0.01"
"20:24:57","35.2","33.6","94","29.98","121","3","7.2","0.05","0.01"
"20:29:56","35.2","33.6","94","29.98","113","3.1","7.2","0.06","0.02"
"20:34:58","35.3","33.7","94","29.98","136","1.6","4.6","0.06","0.02"
"20:39:59","35.3","33.7","94","29.98","132","1.8","4.8","0.06","0.02"
"20:44:59","35.3","33.7","94","29.98","120","2.6","6","0.06","0.01"
"20:49:57","35.3","33.7","94","29.98","128","3.2","7.2","0.06","0.01"
"20:54:57","35.3","33.7","94","29.98","136","2.1","6.9","0.06","0.01"
"20:59:57","35.3","33.7","94","29.98","120","1.8","3.6","0.06","0.01"
"21:04:58","35.3","33.7","94","29.98","114","1","2.4","0.06","0.01"
"21:09:57","35.4","33.8","94","29.98","157","1.6","4.8","0.06","0.01"
"21:14:58","35.4","33.8","94","29.98","163","1.6","4.8","0.06","0.01"
"21:19:58","35.4","33.8","94","29.98","135","2.7","4.8","0.06","0.01"
"21:24:58","35.4","33.8","94","29.98","126","1.6","4.8","0.06","0.01"
"21:29:58","35.3","33.7","94","29.98","145","0.8","3.6","0.06","0.01"
"21:34:56","35.3","33.7","94","29.98","142","2","4.8","0.06","0.00"
"21:39:57","35.3","33.7","94","29.98","115","2.8","6","0.06","0.00"
"21:44:58","35.3","33.8","94.4","29.98","143","2.5","6","0.06","0.00"
"21:49:59","35.3","34","95","29.98","122","1.6","4.8","0.06","0.00"
"21:54:59","35.4","34.1","95","29.98","140","1.7","4.8","0.07","0.01"
"21:59:59","35.4","34.1","95","29.98","168","1.9","4.8","0.07","0.01"
"22:04:56","35.3","33.8","94.4","29.98","128","1.9","3.6","0.07","0.01"
"22:09:59","35.3","33.7","94","29.98","176","1.7","4.8","0.07","0.01"
"22:14:56","35.3","33.7","94","29.98","157","1.8","4.8","0.07","0.01"
"22:19:58","35.3","33.9","94.5","29.98","158","1.6","4.8","0.08","0.02"
"22:24:58","35.4","34","94.8","29.98","150","2.2","4.8","0.08","0.02"
"22:29:58","35.4","34.1","95","29.98","129","1.6","4.8","0.08","0.02"
"22:34:57","35.4","34.1","95","29.97","133","0.7","3.6","0.08","0.02"
"22:39:59","35.5","34.2","95","29.97","133","0.7","2.4","0.08","0.02"
"22:44:59","35.5","34.2","95","29.97","133","1.5","3.6","0.08","0.02"
"22:49:58","35.5","34.2","95","29.97","142","1.2","4.8","0.08","0.02"
"22:54:56","35.5","34.2","95","29.97","153","0.6","2.4","0.08","0.02"
"22:59:56","35.6","34.3","95","29.98","153","0.7","3.6","0.08","0.01"
"23:04:57","35.6","34.3","95","29.98","153","0.4","2.3","0.08","0.01"
"23:09:56","35.6","34.3","95","29.98","153","0.7","2.4","0.08","0.01"
"23:14:56","35.7","34.4","95","29.98","153","0.4","1.2","0.08","0.01"
"23:19:59","35.7","34.4","95","29.97","153","1.3","2.4","0.08","0.01"
"23:24:59","35.8","34.5","95","29.97","147","1.2","4.8","0.08","0.00"
"23:29:59","35.9","34.6","95","29.97","144","0.4","2.4","0.08","0.00"
"23:34:58","35.9","34.6","95","29.97","147","1","4.8","0.08","0.00"
"23:39:58","35.9","34.6","95","29.97","150","0.5","4.6","0.08","0.00"
"23:44:58","35.9","34.6","95","29.98","150","0.9","3.6","0.08","0.00"
"23:49:56","36","34.7","95","29.98","150","0.5","3.6","0.08","0.00"
